Location: Althorst
(53.6379°N, 10.7715°E)
Time: 13:03:36
(UTC+00:00)

Uosat 12 SS-18 rocket - Pass Details

Date: 10 December 2019
Orbit: 595 x 1389 km, 64.6° (Epoch: 19 January)

Event Time Altitude Azimuth Distance (km) Brightness Sun altitude
Rises 17:20:32 0° 313° (NW) 3,377 8.3 -19.9°
Reaches altitude 10° 17:23:13 10° 317° (NW) 2,324 7.4 -20.2°
Maximum altitude 17:28:22 63° 38° (NE) 759 4.2 -21.0°
Enters shadow 17:29:10 54° 85° (E) 818 4.2 -21.1°
